TimeCST,TemperatureF,Dew PointF,Humidity,Sea Level PressureIn,VisibilityMPH,Wind Direction,Wind SpeedMPH,Gust SpeedMPH,PrecipitationIn,Events,Conditions,WindDirDegrees,DateUTC
12:15 AM,24.8,19.4,80,29.96,10.0,NW,16.1,-,N/A,,Partly Cloudy,320,2014-02-16 06:15:00
12:35 AM,24.8,21.2,86,29.97,10.0,NNW,17.3,-,N/A,,Mostly Cloudy,330,2014-02-16 06:35:00
12:55 AM,26.6,21.2,80,29.98,10.0,NNW,15.0,25.3,N/A,,Overcast,340,2014-02-16 06:55:00
1:15 AM,26.6,21.2,80,29.99,10.0,NNW,16.1,-,N/A,,Overcast,330,2014-02-16 07:15:00
1:35 AM,26.6,21.2,80,30.00,10.0,NNW,13.8,19.6,N/A,,Overcast,330,2014-02-16 07:35:00
1:55 AM,26.6,21.2,80,30.01,10.0,NNW,12.7,20.7,N/A,,Overcast,330,2014-02-16 07:55:00
2:15 AM,24.8,21.2,86,30.02,10.0,NNW,13.8,-,N/A,,Overcast,330,2014-02-16 08:15:00
2:35 AM,24.8,19.4,80,30.04,10.0,NNW,18.4,-,N/A,,Overcast,330,2014-02-16 08:35:00
2:55 AM,24.8,19.4,80,30.05,10.0,NW,17.3,-,N/A,,Overcast,320,2014-02-16 08:55:00
3:15 AM,24.8,19.4,80,30.07,10.0,NW,13.8,19.6,N/A,,Overcast,320,2014-02-16 09:15:00
3:35 AM,24.8,19.4,80,30.08,10.0,NNW,13.8,-,N/A,,Overcast,330,2014-02-16 09:35:00
3:55 AM,24.8,19.4,80,30.08,10.0,NW,9.2,-,N/A,,Overcast,320,2014-02-16 09:55:00
4:15 AM,24.8,19.4,80,30.09,10.0,North,-9999.0,-,N/A,,Overcast,0,2014-02-16 10:15:00
4:35 AM,23.0,19.4,86,30.09,10.0,NW,11.5,-,N/A,,Overcast,320,2014-02-16 10:35:00
4:55 AM,23.0,17.6,80,30.11,10.0,NW,13.8,-,N/A,,Overcast,310,2014-02-16 10:55:00
5:15 AM,23.0,17.6,80,30.11,10.0,NW,13.8,-,N/A,,Overcast,310,2014-02-16 11:15:00
5:35 AM,23.0,17.6,80,30.12,9.0,NW,13.8,-,N/A,,Overcast,310,2014-02-16 11:35:00
5:55 AM,23.0,17.6,80,30.12,10.0,NNW,13.8,-,N/A,,Overcast,330,2014-02-16 11:55:00
6:15 AM,23.0,17.6,80,30.12,10.0,NNW,12.7,-,N/A,,Overcast,330,2014-02-16 12:15:00
6:35 AM,21.2,15.8,80,30.12,10.0,NNW,16.1,-,N/A,,Overcast,330,2014-02-16 12:35:00
6:55 AM,21.2,15.8,80,30.14,8.0,NNW,15.0,-,N/A,,Overcast,330,2014-02-16 12:55:00
7:15 AM,21.2,15.8,80,30.16,8.0,NNW,12.7,18.4,N/A,,Overcast,330,2014-02-16 13:15:00
7:35 AM,21.2,15.8,80,30.16,9.0,North,13.8,-,N/A,,Overcast,350,2014-02-16 13:35:00
7:55 AM,21.2,15.8,80,30.17,10.0,NNW,12.7,-,N/A,,Overcast,340,2014-02-16 13:55:00
8:15 AM,21.2,15.8,80,30.18,10.0,North,11.5,-,N/A,,Overcast,350,2014-02-16 14:15:00
8:35 AM,21.2,15.8,80,30.19,10.0,North,11.5,-,N/A,,Overcast,350,2014-02-16 14:35:00
8:55 AM,21.2,15.8,80,30.20,10.0,NNW,11.5,-,N/A,,Overcast,340,2014-02-16 14:55:00
9:15 AM,21.2,15.8,80,30.20,10.0,NNW,13.8,-,N/A,,Overcast,340,2014-02-16 15:15:00
9:35 AM,23.0,15.8,74,30.20,9.0,North,11.5,-,N/A,,Overcast,350,2014-02-16 15:35:00
9:55 AM,23.0,14.0,68,30.21,10.0,North,13.8,-,N/A,,Overcast,350,2014-02-16 15:55:00
10:15 AM,23.0,14.0,68,30.22,10.0,North,11.5,-,N/A,,Overcast,360,2014-02-16 16:15:00
10:35 AM,23.0,15.8,74,30.22,10.0,North,8.1,-,N/A,,Overcast,350,2014-02-16 16:35:00
10:55 AM,23.0,15.8,74,30.23,10.0,NNW,6.9,-,N/A,,Overcast,340,2014-02-16 16:55:00
11:15 AM,23.0,15.8,74,30.23,10.0,NNE,9.2,-,N/A,,Overcast,20,2014-02-16 17:15:00
11:35 AM,23.0,15.8,74,30.23,9.0,North,5.8,-,N/A,,Overcast,10,2014-02-16 17:35:00
11:55 AM,23.0,15.8,74,30.22,10.0,NNE,6.9,-,N/A,,Overcast,20,2014-02-16 17:55:00
12:15 PM,23.0,14.0,68,30.21,10.0,NNE,5.8,-,N/A,,Mostly Cloudy,20,2014-02-16 18:15:00
12:35 PM,23.0,14.0,68,30.21,10.0,NW,3.5,-,N/A,,Overcast,320,2014-02-16 18:35:00
12:55 PM,24.8,14.0,64,30.20,10.0,Calm,Calm,-,N/A,,Overcast,0,2014-02-16 18:55:00
1:15 PM,23.0,14.0,68,30.19,10.0,Calm,Calm,-,N/A,,Overcast,0,2014-02-16 19:15:00
1:35 PM,24.8,15.8,69,30.20,10.0,Calm,Calm,-,N/A,,Overcast,0,2014-02-16 19:35:00
1:55 PM,24.8,14.0,64,30.19,10.0,Calm,Calm,-,N/A,,Scattered Clouds,0,2014-02-16 19:55:00
2:15 PM,24.8,14.0,64,30.19,10.0,ESE,3.5,-,N/A,,Clear,110,2014-02-16 20:15:00
2:35 PM,24.8,14.0,64,30.19,10.0,East,4.6,-,N/A,,Clear,80,2014-02-16 20:35:00
2:55 PM,24.8,14.0,64,30.19,10.0,East,6.9,-,N/A,,Clear,90,2014-02-16 20:55:00
3:15 PM,26.6,15.8,64,30.18,9.0,ESE,8.1,-,N/A,,Clear,110,2014-02-16 21:15:00
3:35 PM,24.8,15.8,69,30.17,10.0,East,9.2,-,N/A,,Clear,100,2014-02-16 21:35:00
3:55 PM,24.8,15.8,69,30.17,10.0,ESE,10.4,-,N/A,,Clear,120,2014-02-16 21:55:00
4:15 PM,26.6,15.8,64,30.18,10.0,SE,8.1,-,N/A,,Partly Cloudy,140,2014-02-16 22:15:00
4:35 PM,26.6,15.8,64,30.17,10.0,SE,9.2,-,N/A,,Scattered Clouds,130,2014-02-16 22:35:00
4:55 PM,24.8,15.8,69,30.18,10.0,SE,10.4,-,N/A,,Partly Cloudy,130,2014-02-16 22:55:00
5:15 PM,24.8,15.8,69,30.17,10.0,SE,9.2,-,N/A,,Mostly Cloudy,130,2014-02-16 23:15:00
5:35 PM,24.8,15.8,69,30.16,9.0,ESE,11.5,-,N/A,,Overcast,120,2014-02-16 23:35:00
5:55 PM,23.0,15.8,74,30.16,9.0,ESE,10.4,-,N/A,,Mostly Cloudy,110,2014-02-16 23:55:00
6:15 PM,23.0,15.8,74,30.16,9.0,SE,10.4,-,N/A,,Mostly Cloudy,130,2014-02-17 00:15:00
6:35 PM,23.0,15.8,74,30.15,10.0,ESE,11.5,-,N/A,,Overcast,110,2014-02-17 00:35:00
6:55 PM,24.8,15.8,69,30.15,10.0,ESE,10.4,-,N/A,,Overcast,110,2014-02-17 00:55:00
7:15 PM,24.8,15.8,69,30.14,10.0,ESE,12.7,-,N/A,,Overcast,120,2014-02-17 01:15:00
7:35 PM,24.8,15.8,69,30.15,10.0,SE,15.0,-,N/A,,Overcast,130,2014-02-17 01:35:00
7:55 PM,24.8,15.8,69,30.15,10.0,SE,15.0,-,N/A,,Overcast,130,2014-02-17 01:55:00
8:15 PM,23.0,15.8,74,30.14,10.0,ESE,10.4,-,N/A,,Overcast,120,2014-02-17 02:15:00
8:35 PM,23.0,14.0,68,30.14,10.0,ESE,12.7,-,N/A,,Overcast,120,2014-02-17 02:35:00
8:55 PM,23.0,14.0,68,30.13,10.0,ESE,15.0,-,N/A,,Overcast,120,2014-02-17 02:55:00
9:15 PM,23.0,15.8,74,30.14,10.0,ESE,13.8,-,N/A,,Overcast,120,2014-02-17 03:15:00
9:35 PM,23.0,14.0,68,30.13,10.0,SE,17.3,-,N/A,,Overcast,130,2014-02-17 03:35:00
9:55 PM,23.0,14.0,68,30.12,10.0,SE,17.3,23.0,N/A,,Overcast,130,2014-02-17 03:55:00
10:15 PM,23.0,14.0,68,30.11,10.0,SE,18.4,24.2,N/A,,Overcast,130,2014-02-17 04:15:00
10:35 PM,23.0,14.0,68,30.10,10.0,ESE,19.6,-,N/A,,Overcast,120,2014-02-17 04:35:00
10:55 PM,23.0,15.8,74,30.08,10.0,SE,20.7,26.5,N/A,,Overcast,130,2014-02-17 04:55:00
11:15 PM,23.0,15.8,74,30.08,10.0,SE,19.6,-,N/A,,Overcast,130,2014-02-17 05:15:00
11:35 PM,23.0,15.8,74,30.09,10.0,SE,16.1,-,N/A,,Overcast,140,2014-02-17 05:35:00
11:55 PM,23.0,15.8,74,30.10,10.0,SE,13.8,19.6,N/A,,Overcast,140,2014-02-17 05:55:00